Location: Czekanka
(50.4925°N, 19.2643°E)
Time: 20:59:45
(UTC+00:00)

USA 234 - Visible Passes

Search period start: 19 September 2024 00:00
Search period end: 29 September 2024 00:00
Orbit: 1100 x 1107 km, 123.0° (Epoch: 08 July)

Date Brightness Start Highest point End Pass type
(mag) Time Alt. Az. Time Alt. Az. Time Alt. Az.
19 Sep 4.9 17:22:18 10° SSE 17:28:01 32° SW 17:33:46 10° WNW visible
20 Sep 5.5 18:24:58 10° SSW 18:28:54 16° WSW 18:32:50 10° W visible
21 Sep 4.8 17:39:46 10° S 17:45:28 31° SW 17:51:14 10° WNW visible
22 Sep 5.5 18:42:29 10° SSW 18:46:22 16° WSW 18:50:17 10° W visible
23 Sep 4.8 17:57:15 10° S 18:02:57 31° SW 18:08:41 10° WNW visible
24 Sep 4.0 17:13:23 10° SE 17:19:46 54° SW 17:26:12 10° WNW visible
24 Sep 5.4 18:59:58 10° SSW 19:03:50 16° WSW 19:07:43 10° W visible
25 Sep 4.7 18:14:44 10° S 18:20:24 31° SW 18:26:08 10° WNW visible
26 Sep 3.9 17:30:51 10° SE 17:37:15 54° SW 17:43:40 10° WNW visible
26 Sep 5.4 19:17:28 10° SSW 19:21:18 16° WSW 19:25:10 10° W visible
27 Sep 4.6 18:32:12 10° S 18:37:53 31° SW 18:43:36 10° WNW visible
28 Sep 3.9 17:48:19 10° SE 17:54:42 54° SW 18:01:07 10° WNW visible
28 Sep 5.3 19:35:11 11° SSW 19:38:46 16° WSW 19:42:36 10° W visible
